RH
83 86 87 93 100 99 86 94 95 92 89 88 88 88 88 88 86 85 84 82 82 82 80 76 70 78 84 84 86 90 97 97 96 86 85 86 83 90 97 97 93 94 96
75 82 83 96 99 98 90 96 93 90 88 87 86 86 86 86 86 84 81 81 81 79 77 73 68 80 84 84 86 94 96 87 81 84 88 89 89 95 94 93 91 97 95
73 80 85 96 96 88 96 95 92 90 88 87 85 84 84 84 83 82 81 82 81 78 74 70 70 83 83 86 89 93 94 70 66 75 79 85 89 87 89 91 89 88 89
74 72 94 94 91 87 95 93 90 88 87 85 84 84 83 83 82 83 84 85 84 79 74 69 76 78 84 93 94 95 81 68 54 50 68 78 82 80 78 79 84 87 85
83 85 100 91 84 89 95 91 89 87 86 86 85 84 84 84 85 85 86 86 85 78 73 69 76 76 86 93 96 98 84 70 58 53 75 81 79 78 79 82 83 83 84
90 100 98 77 82 90 93 91 88 88 87 86 85 85 84 84 86 88 89 88 86 78 72 72 74 76 86 89 94 91 75 63 53 70 78 77 76 75 76 78 80 80 81
97 98 94 77 81 92 92 90 89 88 87 86 86 85 85 86 88 90 88 89 84 79 71 74 74 84 86 84 76 54 54 54 63 78 76 79 70 73 74 77 75 77 77
91 89 87 82 82 94 90 89 89 89 87 86 86 85 86 87 88 89 89 86 82 79 71 74 75 84 87 75 52 50 54 64 74 76 78 70 76 74 75 78 77 72 77
88 87 86 88 84 90 87 87 88 89 88 88 86 87 88 89 90 89 89 86 82 78 72 79 85 86 91 82 54 59 70 79 77 69 72 72 69 74 82 83 81 75 74
80 88 94 93 93 90 89 87 87 87 88 88 88 87 87 89 89 89 87 86 84 76 75 83 89 91 90 73 75 76 76 71 68 71 74 76 86 94 84 86 83 83 75
82 92 90 93 92 93 90 90 87 86 86 88 89 87 88 89 88 84 82 84 84 74 80 81 89 91 69 80 85 86 76 72 69 72 81 90 93 89 88 88 85 90 79
98 100 95 94 88 94 91 89 88 87 89 89 89 88 85 81 74 69 70 77 75 76 80 84 93 70 76 91 85 76 72 70 69 68 68 75 87 91 90 90 89 93 90
100 100 99 91 88 93 94 92 89 89 91 90 87 83 74 66 59 54 61 78 74 76 70 56 70 72 80 86 76 72 73 76 72 69 88 94 92 89 92 93 95 93 87
83 100 94 90 93 95 95 92 88 89 91 88 80 72 54 46 45 42 54 67 65 64 50 51 72 70 75 79 77 83 82 78 76 74 83 89 95 90 90 91 88 88 95
96 76 98 93 90 94 95 92 86 85 86 78 71 52 39 35 34 36 50 54 50 50 48 52 67 66 68 77 83 80 78 76 77 78 74 80 98 96 91 86 95 95 93
91 84 73 100 91 90 89 91 85 81 77 63 54 50 36 30 29 36 44 46 49 49 47 47 61 66 67 72 80 78 78 77 76 77 78 76 90 100 96 96 96 92 91
67 87 77 93 95 86 75 84 80 75 69 55 52 47 36 33 34 34 36 39 50 51 48 51 65 65 60 65 72 71 69 71 67 74 81 83 82 92 100 96 95 88 82
86 84 75 100 97 84 75 78 75 68 59 44 56 56 40 44 39 38 36 37 51 52 50 53 65 61 53 46 44 42 41 39 39 55 73 74 84 82 84 83 76 77 84
91 76 95 100 95 81 74 76 74 63 52 42 51 52 53 48 48 41 38 38 51 54 54 57 64 58 55 55 50 51 53 52 49 48 57 60 85 85 81 80 78 81 80
87 99 96 96 96 80 78 81 77 68 54 44 50 48 52 48 51 46 40 37 46 52 55 56 59 58 57 58 53 55 53 54 54 54 53 52 67 91 87 83 77 74 78
100 100 100 98 95 87 83 82 80 72 62 46 49 46 50 48 50 49 43 39 38 50 56 56 56 57 62 55 56 60 59 55 55 57 61 63 62 78 90 86 80 82 84
99 94 99 97 90 85 80 74 72 70 60 44 43 45 50 49 49 49 45 40 39 41 56 57 54 61 61 54 60 66 84 72 58 58 58 66 69 63 61 76 82 81 77
96 100 99 90 87 83 79 74 62 62 57 55 54 49 50 51 50 49 48 43 40 40 51 58 56 56 65 57 54 60 85 88 72 60 59 59 72 74 66 55 48 45 48
88 100 96 93 88 82 77 70 61 61 63 60 54 50 48 51 53 50 49 46 39 40 44 58 57 56 57 66 61 66 57 66 86 77 61 60 66 82 73 62 51 53 57
80 94 98 90 90 84 81 71 62 60 56 52 49 46 46 49 51 51 50 48 44 40 40 46 59 58 57 60 65 64 62 66 64 67 77 68 70 90 81 69 61 64 66
87 96 99 96 87 85 82 74 67 63 60 57 54 52 48 50 53 52 52 51 49 42 41 42 51 60 61 58 60 57 51 57 59 61 74 73 73 92 95 75 72 72 68
Wind_Speed
27 34 30 27 24 25 22 20 18 18 19 18 18 18 18 18 18 18 18 17 16 16 15 15 15 16 16 16 15 16 17 18 17 17 18 17 16 17 17 19 21 20 18
34 36 32 27 27 25 23 21 19 18 19 19 19 18 18 17 17 18 18 18 17 17 16 16 16 16 17 17 17 17 17 18 17 17 17 16 15 15 16 17 18 18 18
36 37 33 29 29 25 22 21 20 20 19 19 19 18 18 17 17 18 18 19 18 18 17 16 17 18 17 17 18 17 17 17 16 14 14 17 17 15 15 16 17 16 16
37 37 33 31 29 25 22 21 21 20 20 20 19 19 18 18 17 17 18 19 19 18 18 18 19 18 17 17 18 16 16 15 15 14 14 17 18 16 15 15 15 15 15
35 36 31 34 28 24 23 22 21 21 20 20 19 19 19 18 18 17 17 18 18 18 18 19 19 18 18 18 18 15 13 13 13 15 18 19 18 16 15 15 16 16 16
30 29 34 31 28 26 23 22 21 21 21 20 20 20 20 18 17 17 16 17 17 18 18 19 18 18 19 18 17 16 14 12 12 18 20 18 18 15 15 15 16 16 17
25 29 30 29 29 26 24 22 22 21 21 20 20 20 19 18 17 16 16 17 17 18 18 18 19 19 18 17 15 13 12 12 17 19 19 18 16 15 15 16 16 17 17
24 28 28 27 26 26 24 24 23 21 21 21 20 20 19 18 17 16 16 16 17 18 19 19 19 19 17 16 14 14 15 18 20 19 17 17 15 15 15 15 14 14 14
23 27 26 27 25 25 26 25 24 22 21 21 20 20 19 18 17 16 16 16 16 17 19 20 19 19 18 17 18 20 23 22 20 17 16 16 15 14 15 15 17 16 15
22 26 26 25 24 24 24 25 24 23 22 21 21 21 20 19 17 15 16 16 17 17 20 19 19 19 18 19 22 24 21 18 17 15 13 15 14 16 16 15 14 16 17
22 25 28 26 25 25 24 23 24 23 23 22 21 22 21 20 19 18 17 17 17 19 21 19 19 19 19 20 20 19 19 20 16 16 16 15 16 15 15 14 16 18 18
21 23 30 29 26 24 26 25 25 24 24 25 23 22 22 19 18 19 18 19 19 21 20 20 20 20 20 22 21 19 20 19 19 15 11 12 11 13 13 15 15 18 20
7 26 30 30 29 28 28 27 27 27 27 24 23 22 21 20 20 20 21 22 24 23 21 21 23 21 20 21 20 18 19 20 19 17 12 12 16 16 15 17 19 19 18
6 13 31 31 31 31 29 29 30 29 26 25 24 23 22 22 22 22 22 23 23 22 22 22 23 22 21 19 19 20 19 19 19 16 13 15 14 16 16 16 17 18 21
11 2 10 35 36 33 30 30 30 29 28 26 25 23 23 23 23 23 24 23 21 21 21 23 24 22 21 20 20 19 18 17 17 15 14 13 17 13 17 17 19 23 21
26 16 12 29 40 36 33 32 31 30 28 28 27 24 22 23 24 24 25 23 21 21 22 23 24 22 21 21 20 18 18 17 16 15 14 12 13 18 17 20 21 19 18
34 38 24 34 41 39 36 34 33 31 30 30 28 25 23 23 24 24 23 23 22 22 24 24 25 22 21 21 20 17 15 14 13 14 13 13 10 17 18 17 20 17 16
25 30 26 40 44 41 38 38 36 33 32 31 29 26 25 24 23 23 23 22 24 23 25 27 27 25 23 22 22 19 17 15 14 13 13 12 12 10 15 17 15 14 15
25 29 29 39 45 44 39 38 37 35 34 33 30 28 27 25 23 22 23 24 26 26 26 27 28 26 26 24 22 18 16 14 14 13 12 12 13 12 12 14 18 16 15
35 36 45 45 40 44 39 37 35 35 34 34 33 29 29 27 24 23 23 24 26 28 28 28 28 26 26 26 23 18 15 13 13 12 14 13 13 14 14 16 18 17 15
7 31 41 36 37 39 38 38 34 35 35 33 32 28 29 27 26 27 25 26 28 29 31 30 29 28 26 27 24 18 14 11 11 11 11 12 12 14 14 15 18 18 18
12 22 25 28 38 38 37 38 26 32 34 31 29 27 28 27 26 29 27 29 29 30 31 33 34 31 27 31 16 11 2 4 6 9 10 11 11 12 13 12 12 12 12
22 28 30 29 32 34 33 31 23 28 23 29 30 30 30 28 28 29 28 28 30 31 33 35 36 33 26 28 30 7 2 3 7 5 9 10 12 12 12 12 12 12 11
27 28 37 33 35 35 36 34 32 31 20 25 31 30 29 27 28 28 28 27 29 30 33 35 35 32 31 27 30 5 5 9 3 2 6 9 10 13 13 12 12 12 10
25 27 31 39 38 39 41 40 38 32 32 29 32 32 32 30 28 29 28 27 30 31 32 34 36 35 33 33 28 12 8 8 9 5 3 6 10 13 14 13 13 12 11
19 21 23 28 35 38 41 40 39 34 32 27 31 32 34 32 30 31 29 30 31 31 32 33 36 38 35 34 33 25 13 7 8 5 4 5 12 8 14 13 11 10 10
Wind_Direction
179 171 175 168 166 156 160 150 146 142 137 135 131 128 125 125 124 121 117 114 110 106 102 104 105 102 105 105 105 102 102 96 93 94 88 85 80 74 73 72 72 67 65
170 170 174 169 162 157 162 152 149 144 141 137 134 131 129 128 126 124 121 117 113 110 107 102 102 110 108 102 107 107 103 99 98 94 91 87 78 72 70 69 68 65 67
171 169 167 167 165 162 157 154 150 147 144 139 137 134 133 130 127 124 121 117 113 108 108 110 110 108 105 107 115 109 99 98 93 97 97 90 80 73 68 65 66 67 63
172 168 168 169 165 167 157 155 152 149 147 143 140 137 135 132 129 125 122 119 116 113 111 110 111 110 107 107 117 107 102 97 92 91 95 91 85 79 73 69 67 66 70
172 170 173 171 169 166 158 156 154 152 150 146 144 139 135 133 130 126 124 120 116 112 109 112 114 109 106 103 115 120 113 102 92 95 98 92 89 86 81 78 76 72 72
172 175 172 173 176 165 159 158 156 154 151 149 146 141 136 134 131 129 125 119 115 112 111 115 114 114 115 109 109 113 117 109 99 102 98 94 91 86 84 80 78 75 73
173 175 176 181 176 165 161 161 158 156 154 151 147 142 139 137 135 131 127 122 118 116 117 117 117 121 117 114 114 117 115 110 107 103 100 97 92 89 86 84 78 78 74
174 178 181 185 179 163 162 162 161 158 156 153 149 144 142 140 137 134 131 126 124 123 125 123 122 120 113 111 112 112 111 110 108 103 100 93 96 94 90 84 79 82 78
175 178 183 184 181 170 165 165 164 161 158 155 151 148 145 143 141 138 133 129 126 126 127 123 121 120 114 111 113 113 111 108 101 97 102 103 101 101 93 97 83 88 82
180 184 179 177 177 174 170 166 167 163 161 158 155 155 154 148 141 140 138 134 130 128 128 126 122 122 119 118 120 118 112 108 110 113 110 114 111 108 95 93 97 96 90
189 185 185 180 179 178 173 170 168 165 163 162 163 161 157 153 152 151 145 138 132 131 132 128 127 127 125 126 125 123 121 112 116 110 87 109 89 91 92 93 104 102 95
184 176 186 183 180 181 178 175 170 167 169 171 170 166 162 160 155 151 146 137 132 133 136 132 136 133 131 132 129 127 122 112 105 112 105 98 102 101 96 102 109 107 101
211 180 183 182 184 184 184 178 174 174 176 176 173 169 165 161 157 154 148 145 145 145 142 140 141 136 133 135 131 127 128 121 112 110 104 78 116 108 99 114 95 100 98
31 178 188 186 187 189 189 185 182 180 181 178 174 172 170 164 161 159 156 155 155 154 146 146 146 140 137 137 134 131 129 123 122 118 107 78 97 115 112 111 106 104 102
246 234 203 193 191 193 193 191 187 185 183 181 177 175 173 169 165 163 161 158 159 158 156 152 152 145 141 142 137 138 133 130 130 127 127 106 80 118 117 116 115 103 92
224 261 268 201 194 195 195 195 193 189 185 183 180 178 177 172 167 165 164 165 164 163 160 159 156 149 143 144 144 142 137 135 136 136 136 125 92 89 114 113 104 100 96
220 214 235 199 197 195 196 198 197 192 188 186 183 180 179 177 175 173 172 170 166 165 164 159 157 150 144 143 142 144 144 144 144 144 141 140 121 98 96 105 100 94 92
217 216 220 192 197 197 197 197 198 196 192 188 186 185 182 182 182 178 177 173 168 164 165 163 160 151 146 142 135 133 129 128 130 140 141 143 142 125 98 101 96 98 100
219 220 195 188 194 197 197 198 200 197 196 193 191 190 190 188 188 187 181 174 172 166 167 167 164 159 151 144 137 134 130 128 123 128 132 132 146 140 125 123 118 107 101
290 232 187 181 191 193 195 197 200 200 200 198 198 197 195 194 194 192 185 180 177 174 171 169 168 166 158 149 138 133 130 129 128 127 124 123 126 137 139 140 134 123 115
44 145 167 173 183 181 188 193 200 201 203 202 204 204 198 199 199 195 190 188 184 183 179 177 169 164 157 153 129 119 111 119 130 134 134 134 132 135 139 137 139 137 130
168 162 163 178 177 182 187 192 193 198 204 204 204 210 205 203 202 199 195 193 190 190 184 182 174 164 165 160 147 124 118 100 125 143 149 152 146 141 144 146 148 142 137
188 175 188 184 182 185 190 185 188 194 198 202 207 210 208 208 207 205 203 202 199 196 191 188 184 177 168 174 162 145 126 183 140 155 163 166 168 160 150 146 142 137 131
196 178 189 188 192 192 198 191 190 185 186 201 206 208 212 210 211 211 211 208 208 203 200 195 192 187 182 183 182 185 138 138 150 133 172 173 177 174 165 156 150 141 137
192 189 186 190 196 196 200 201 197 194 202 203 207 208 210 211 210 212 214 212 213 210 207 204 199 196 197 190 191 182 148 147 137 138 157 164 168 179 177 172 166 160 154
188 187 191 189 191 194 198 201 201 201 200 200 205 206 208 210 209 212 216 217 218 216 213 211 209 207 206 205 202 206 183 171 179 152 112 140 154 163 182 181 175 168 161